NOAA 16 DEB

Satellite information

Favourite Embed

Satellite Type and Status

DEBRISIN ORBIT

Key statistics

Satellite NOAA 16 DEB at a glance.

Uptime

9215

Days in orbit

Revolutions

≈ 14.7

Per day

Orbit

SSO

Sun Synchronous Orbit

Inclination

98.9

Latest

Satellite identification and parameters

Extended collection of information and parameters for NOAA 16 DEB.

Object identification

Identified? True

Debris? True

Object name: NOAA 16 DEB

International designator: 2000-055RS

Object number (NORAD): 42374

Object ID (CCSDS): 42374

Country: UNITED STATES OF AMERICA (US)

Current information (Y/N): Y

RCS size: SMALL

Orbital parameters

Period: 98.236 minutes

Inclination: 98.8529 deg

SMA: 7052.443 km

Apoapsis: 682.821 km

Periapsis: 665.795 km

RAAN: 117.2061 deg

Eccentricy: 0.0012071

Argument of periapsis: 253.1504 deg

Mean anomaly: 106.8374 deg

Mean motion: 14.65863138 rev/day

Mean motion (dot): 0.00048347 rev/day2

B* drag term: 0.0087890837 1/REarth

Two-line elements (TLE)

Creation date: Dec. 13, 2025, 4:32 a.m.

Reference frame: TEME

Reference center: EARTH

Epoch: Dec. 12, 2025, 2:13 p.m. UTC

TLE line 0: 0 NOAA 16 DEB

TLE line 1: 1 42374U 00055RS 25346.59278881 .00048347 00000-0 87891-2 0 9999

TLE line 2: 2 42374 98.8529 117.2061 0012071 253.1504 106.8374 14.65863138501282

Live tracking on map

Real-time ground track for satellite NOAA 16 DEB.

In-orbit conjunctions

A list of the most updated potential collisions computed for object NOAA 16 DEB.

Target Orbit TCA Probability of collision Miss distance Type
CZ-2C R/B LEO 2025-07-18 02:58:12 0.0002726898 267.0 (m) ROCKET BODY
ORSTED SSO 2025-03-30 07:43:02 0.0006707502 113.0 (m) PAYLOAD
COSMOS 468 LEO 2024-07-03 11:40:47 0.0001841579 72.0 (m) PAYLOAD

Associated space launch

The NOAA K, L and M POES satellites begin the fifth generation of improved environmental monitoring in support of NOAA missions. The instrument payload has significant improvements and additions/deletions. The instrument changes have effected the spacecraft subsystems and data formats.

NOAA 16 DEB was lifted into orbit during the mission ‘Titan II SLV | NOAA 16’, on board a Titan II SLV space rocket.

The launch took place on Sept. 21, 2000, 10:22 a.m. from Space Launch Complex 4W.

For more information about the launch, click the button.

Launch to space Titan II SLV | NOAA 16
Titan II SLV | NOAA 16

Agency: N/A

Status: Launch Successful

Launch date: Sept. 21, 2000, 10:22 a.m. UTC

Rocket: Titan II SLV

Launch pad: Space Launch Complex 4W

Location: Vandenberg SFB, CA, USA

...

Latest news about this satellite

There are no fresh news available about this satellite. Check back as we update our databases every day.


Newsletter sign-up

Weekly statistics, charts and insights to help you stay on top of the space industry.